CAPE
0 0 0 0 0 0 0 0 0 0 0 0 0 0 0 0 0 0 55 76 47 0 0 6 8 6 1 0 0 0 0 0 0 0 0 0 1 1 1 1 1 3 6 5 4 10 10 1 1
0 0 0 0 0 0 0 0 0 0 0 0 0 0 0 0 1 12 144 128 9 0 0 10 5 3 2 0 0 0 0 0 0 0 0 0 1 3 4 5 8 7 5 6 10 14 3 3 6
0 0 0 0 0 0 0 0 0 0 0 0 0 0 0 0 7 6 107 87 0 0 11 4 2 3 0 0 0 0 0 0 0 0 0 0 1 3 3 5 3 1 1 5 3 4 6 6 9
0 0 0 0 0 0 0 0 0 0 0 0 0 0 0 0 61 0 112 2 0 0 4 1 0 3 0 0 0 0 0 0 0 0 0 1 2 2 1 4 4 4 5 5 9 8 12 10 9
0 0 0 0 0 0 0 0 0 0 0 0 0 0 0 20 21 18 38 0 0 2 7 3 1 1 1 0 0 0 0 0 0 0 0 0 0 1 3 5 5 4 5 7 2 4 5 5 0
0 0 0 0 0 0 0 0 0 0 0 0 0 0 0 18 0 3 28 0 0 0 2 0 0 0 0 0 0 0 0 0 0 0 0 0 0 0 1 2 4 3 8 8 13 13 15 12 9
0 0 0 0 0 0 0 0 0 0 0 0 0 0 0 17 0 0 14 0 0 3 1 0 0 0 0 0 0 0 0 0 0 0 0 0 0 0 0 0 0 0 9 14 16 20 18 12 14
0 0 0 0 0 0 0 0 0 0 0 0 0 0 0 0 30 0 0 0 0 6 1 0 0 0 0 0 0 0 0 0 0 0 0 0 0 0 0 0 0 0 4 14 8 10 4 1 11
0 0 0 0 0 0 0 0 0 0 0 0 0 0 0 14 0 0 0 0 5 2 0 0 0 0 0 0 0 0 0 0 0 0 0 0 0 0 0 0 0 0 5 4 2 3 1 0 0
0 0 0 0 0 0 0 0 0 0 0 0 0 0 0 18 4 0 0 0 6 5 1 1 0 0 0 0 0 0 0 0 0 0 0 0 0 0 0 0 0 0 0 2 3 4 0 0 0
0 0 0 0 0 0 0 0 0 0 0 0 0 0 1 0 2 0 1 1 0 3 1 1 0 0 0 0 0 0 0 0 0 0 0 0 0 0 0 0 0 0 0 0 2 0 0 0 0
0 0 0 0 0 0 0 0 0 0 0 0 0 0 0 0 0 0 0 1 0 2 1 0 0 0 0 0 0 0 0 0 0 0 0 0 0 0 0 0 0 0 0 0 2 0 0 0 0
0 0 0 0 0 0 0 0 0 0 0 0 0 0 0 0 0 0 0 0 7 1 0 0 0 0 0 0 0 0 0 0 0 0 0 0 0 0 0 0 0 0 0 0 2 0 0 0 0
0 0 0 0 0 0 0 0 0 0 0 0 0 0 0 0 0 0 0 0 1 1 1 0 0 0 0 0 0 0 0 0 0 0 0 0 0 0 0 0 0 0 0 0 0 0 0 0 0
0 0 0 0 0 0 0 0 0 0 0 0 0 0 0 0 0 0 0 0 0 0 2 0 0 0 0 0 0 0 0 0 0 0 0 0 0 0 0 0 0 1 0 0 0 0 0 0 0
0 0 0 0 0 0 0 0 0 0 0 0 0 0 0 0 0 0 0 0 0 0 1 0 1 0 0 0 0 0 0 0 0 0 0 0 0 0 0 0 0 1 0 2 0 1 1 1 0
0 0 0 0 0 0 0 0 0 0 0 0 0 0 0 0 0 0 0 0 0 0 0 0 0 0 0 0 0 0 0 0 0 0 0 0 0 0 0 0 0 0 0 0 0 0 0 2 0
0 0 0 0 0 0 0 0 0 0 0 0 0 0 0 0 0 0 0 0 0 0 0 0 0 0 0 0 0 0 0 0 0 0 0 0 0 0 0 0 0 0 0 0 0 0 0 0 0
0 0 0 0 0 0 0 0 0 0 0 0 0 0 0 0 0 0 0 0 0 0 0 0 0 0 0 0 0 0 0 0 0 0 0 0 0 0 0 0 0 0 0 0 0 0 0 0 0
0 0 0 0 0 0 0 0 0 0 0 0 0 0 0 0 0 0 0 0 0 0 0 0 0 0 0 0 0 0 0 0 0 0 0 0 0 0 0 0 0 0 0 0 0 0 0 0 0
0 0 0 0 0 0 0 0 0 0 0 0 0 0 0 0 0 0 0 0 0 0 0 0 0 0 0 0 0 0 0 0 0 0 0 0 0 0 0 0 0 0 0 0 0 0 0 0 0
0 0 0 0 0 0 0 0 0 0 0 0 0 0 0 0 0 0 0 0 0 0 0 0 0 0 0 0 0 0 0 0 0 0 0 0 0 0 0 0 0 0 0 0 0 0 0 0 0
0 0 0 0 0 1 0 0 0 0 0 0 0 0 0 0 0 0 0 0 0 0 0 0 0 0 0 0 0 0 0 0 0 0 0 0 0 0 0 0 0 0 0 0 0 0 0 0 0
0 0 0 0 0 0 0 0 0 0 0 0 0 0 0 0 0 0 0 0 0 0 0 0 0 0 0 0 0 0 0 0 0 0 0 0 0 0 0 0 0 0 0 0 0 0 0 0 0
0 0 0 0 3 0 0 0 0 0 0 0 0 0 0 0 0 0 0 0 0 0 0 0 0 0 0 0 0 0 0 0 0 0 0 0 0 0 0 0 0 0 0 0 0 0 0 0 0
0 0 0 0 0 0 0 3 0 0 0 0 0 0 0 0 0 0 0 0 0 0 0 0 0 0 0 0 0 0 0 0 0 0 0 0 0 0 0 0 0 0 0 0 0 0 0 0 0
0 0 0 0 0 0 6 0 0 0 0 0 0 0 0 0 0 0 0 0 0 0 0 0 0 0 0 0 0 0 0 0 0 0 0 0 0 0 0 0 0 0 0 0 0 0 0 0 0
0 0 0 0 0 0 11 0 0 0 0 0 0 0 0 0 0 0 0 0 0 0 0 0 0 0 0 0 0 0 0 0 0 0 0 0 0 0 0 0 0 0 0 0 0 0 0 0 0
0 0 0 0 11 8 0 0 0 0 0 0 0 0 0 0 0 0 0 0 0 0 0 0 0 0 0 0 0 0 0 0 0 0 0 0 0 0 0 0 0 0 0 0 0 0 0 0 0
0 1 1 0 0 1 0 0 0 0 0 0 0 0 0 0 0 0 0 0 0 0 0 0 0 0 0 0 0 0 0 0 0 0 0 0 0 0 0 0 0 0 0 0 0 0 0 0 0
CIN
-0 -0 -0 -0 -0 -0 -0 -0 -0 -0 -0 -0 -0 -0 -0 -0 -21 -0 -221 -190 -203 -0 -0 -6 -15 -4 -0 -0 -0 -0 -0 -0 -0 -0 -0 -0 -0 -0 -0 -0 -0 -0 -0 -0 -3 -1 -1 -0 -0
-0 -0 -0 -0 -0 -0 -0 -0 -0 -0 -0 -0 -0 -0 -0 -0 -14 -190 -181 -174 -191 -0 -0 -14 -19 -4 -0 -0 -0 -0 -0 -0 -0 -0 -0 -0 -0 -0 -0 -0 -0 -1 -0 -1 -1 -1 -0 -1 -1
-0 -0 -0 -0 -0 -0 -0 -0 -0 -0 -0 -0 -0 -0 -0 -0 -79 -88 -224 -180 -0 -0 -19 -17 -22 -0 -0 -0 -0 -0 -0 -0 -0 -0 -0 -0 -0 -0 -0 -0 -1 -0 -0 -0 -0 -1 -0 -1 -0
-0 -0 -0 -0 -0 -0 -0 -0 -0 -0 -0 -0 -0 -0 -0 -0 -196 -0 -201 -21 -0 -0 -18 -15 -0 -0 -0 -0 -0 -0 -0 -0 -0 -0 -0 -0 -0 -0 -0 -0 -0 -0 -1 -0 -0 -0 -1 -0 -1
-0 -0 -0 -0 -0 -0 -0 -0 -0 -0 -0 -0 -0 -0 -0 -204 -177 -101 -242 -0 -0 -15 -31 -29 -0 -0 -0 -0 -0 -0 -0 -0 -0 -0 -0 -0 -0 -0 -0 -0 -0 -0 -1 -0 -0 -0 -0 -0 -0
-0 -0 -0 -0 -0 -0 -0 -0 -0 -0 -0 -0 -0 -0 -0 -178 -0 -53 -277 -0 -0 -0 -32 -0 -0 -0 -0 -0 -0 -0 -0 -0 -0 -0 -0 -0 -0 -0 -0 -0 -0 -0 -0 -0 -0 -0 -0 -1 -0
-0 -0 -0 -0 -0 -0 -0 -0 -0 -0 -0 -0 -0 -0 -0 -160 -0 -0 -293 -0 -0 -31 -29 -0 -0 -0 -0 -0 -0 -0 -0 -0 -0 -0 -0 -0 -0 -0 -0 -0 -0 -0 -0 -0 -0 -0 -0 -4 -3
-0 -0 -0 -0 -0 -0 -0 -0 -0 -0 -0 -0 -0 -0 -0 -0 -160 -0 -0 -0 -0 -34 -26 -0 -0 -0 -0 -0 -0 -0 -0 -0 -0 -0 -0 -0 -0 -0 -0 -0 -0 -0 -1 -0 -0 -0 -0 -1 -3
-0 -0 -0 -0 -0 -0 -0 -0 -0 -0 -0 -0 -0 -0 -0 -202 -0 -0 -0 -22 -24 -30 -25 -10 -0 -0 -0 -0 -0 -0 -0 -0 -0 -0 -0 -0 -0 -0 -0 -0 -0 -0 -1 -0 -1 -0 -3 -0 -0
-0 -0 -0 -0 -0 -0 -0 -0 -0 -0 -0 -0 -0 -0 -0 -154 -97 -0 -0 -0 -7 -15 -11 -27 -5 -0 -0 -0 -0 -0 -0 -0 -0 -0 -0 -0 -0 -0 -0 -0 -0 -0 -0 -0 -0 -4 -0 -0 -0
-0 -0 -0 -0 -0 -0 -0 -0 -0 -0 -0 -0 -0 -0 -19 -0 -29 -0 -0 -2 -0 -9 -14 -12 -3 -0 -0 -0 -0 -0 -0 -0 -0 -0 -0 -0 -0 -0 -0 -0 -0 -0 -0 -0 -1 -0 -0 -0 -0
-0 -0 -0 -0 -0 -0 -0 -0 -0 -0 -0 -0 -0 -0 -0 -0 -0 -0 -0 -1 -1 -4 -8 -0 -1 -0 -0 -0 -0 -0 -0 -0 -0 -0 -0 -0 -0 -0 -0 -0 -0 -0 -0 -0 -2 -0 -0 -0 -0
-0 -0 -0 -0 -0 -0 -0 -0 -0 -0 -0 -0 -0 -0 -0 -0 -0 -0 -0 -3 -3 -1 -2 -0 -4 -0 -0 -0 -0 -0 -0 -0 -0 -0 -0 -0 -0 -0 -0 -0 -0 -0 -0 -0 -3 -0 -0 -0 -0
-0 -0 -0 -0 -0 -0 -0 -0 -0 -0 -0 -0 -0 -0 -0 -0 -0 -0 -0 -0 -1 -1 -3 -1 -1 -0 -0 -0 -0 -0 -0 -0 -0 -0 -0 -0 -0 -0 -0 -0 -0 -0 -0 -0 -1 -0 -0 -0 -0
-0 -0 -0 -0 -0 -0 -0 -0 -0 -0 -0 -0 -0 -0 -0 -0 -0 -0 -0 -0 -0 -0 -5 -0 -0 -0 -0 -0 -0 -0 -0 -0 -0 -0 -0 -0 -0 -0 -0 -0 -0 -3 -0 -0 -0 -0 -0 -2 -0
-0 -0 -0 -0 -0 -0 -0 -0 -0 -0 -0 -0 -0 -0 -0 -0 -0 -0 -0 -0 -0 -0 -4 -0 -1 -0 -0 -0 -0 -0 -0 -0 -0 -0 -0 -0 -0 -0 -0 -0 -0 -2 -0 -1 -0 -1 -1 -11 -0
-0 -0 -0 -0 -0 -0 -0 -0 -0 -0 -0 -0 -0 -0 -0 -0 -0 -0 -0 -0 -0 -0 -0 -0 -0 -0 -0 -0 -0 -0 -0 -0 -0 -0 -0 -0 -0 -0 -0 -0 -0 -4 -0 -2 -0 -0 -0 -9 -0
-0 -0 -0 -0 -0 -0 -0 -0 -0 -0 -0 -0 -0 -0 -0 -0 -0 -0 -0 -0 -0 -0 -0 -0 -0 -0 -0 -0 -0 -0 -0 -0 -0 -0 -0 -0 -0 -0 -0 -0 -0 -0 -0 -0 -2 -0 -1 -0 -0
-0 -0 -0 -0 -0 -0 -0 -0 -0 -0 -0 -0 -0 -0 -0 -0 -0 -0 -0 -0 -0 -0 -0 -0 -0 -0 -0 -0 -0 -0 -0 -0 -0 -0 -0 -0 -0 -0 -0 -0 -0 -0 -0 -0 -0 -0 -0 -8 -0
-0 -0 -0 -0 -0 -0 -0 -0 -0 -0 -0 -0 -0 -0 -0 -0 -0 -0 -0 -0 -0 -0 -0 -0 -0 -0 -0 -0 -0 -0 -0 -0 -0 -0 -0 -0 -0 -0 -0 -0 -0 -0 -0 -0 -1 -0 -0 -0 -0
-0 -0 -0 -0 -0 -0 -0 -0 -0 -0 -0 -0 -0 -0 -0 -0 -0 -0 -0 -0 -0 -0 -0 -0 -0 -0 -0 -0 -0 -0 -0 -0 -0 -0 -0 -0 -0 -0 -0 -0 -0 -0 -0 -0 -0 -0 -0 -0 -0
-0 -0 -0 -0 -0 -0 -0 -0 -0 -0 -0 -0 -0 -0 -0 -0 -0 -0 -0 -0 -0 -0 -0 -0 -0 -0 -0 -0 -0 -0 -0 -0 -0 -0 -0 -0 -0 -0 -0 -0 -0 -0 -0 -0 -0 -0 -0 -0 -0
-0 -0 -0 -0 -0 -1 -0 -0 -0 -0 -0 -0 -0 -0 -0 -0 -0 -0 -0 -0 -0 -0 -0 -0 -0 -0 -0 -0 -0 -0 -0 -0 -0 -0 -0 -0 -0 -0 -0 -0 -0 -0 -0 -0 -0 -0 -0 -0 -0
-0 -0 -0 -0 -0 -2 -0 -0 -0 -0 -0 -0 -0 -0 -0 -0 -0 -0 -0 -0 -0 -0 -0 -0 -0 -0 -0 -0 -0 -0 -0 -0 -0 -0 -0 -0 -0 -0 -0 -0 -0 -0 -0 -0 -0 -0 -0 -0 -0
-0 -0 -0 -1 -1 -0 -0 -0 -0 -0 -0 -0 -0 -0 -0 -0 -0 -0 -0 -0 -0 -0 -0 -0 -0 -0 -0 -0 -0 -0 -0 -0 -0 -0 -0 -0 -0 -0 -0 -0 -0 -0 -0 -0 -0 -0 -0 -0 -0
-0 -0 -0 -5 -0 -0 -1 -1 -0 -0 -0 -0 -0 -0 -0 -0 -0 -0 -0 -0 -0 -0 -0 -0 -0 -0 -0 -0 -0 -0 -0 -0 -0 -0 -0 -0 -0 -0 -0 -0 -0 -0 -0 -0 -0 -0 -0 -0 -0
-0 -0 -0 -0 -0 -0 -2 -0 -0 -0 -0 -0 -0 -0 -0 -0 -0 -0 -0 -0 -0 -0 -0 -0 -0 -0 -0 -0 -0 -0 -0 -0 -0 -0 -0 -0 -0 -0 -0 -0 -0 -0 -0 -0 -0 -0 -0 -0 -0
-0 -0 -0 -1 -0 -0 -3 -0 -0 -0 -0 -0 -0 -0 -0 -0 -0 -0 -0 -0 -0 -0 -0 -0 -0 -0 -0 -0 -0 -0 -0 -0 -0 -0 -0 -0 -0 -0 -0 -0 -0 -0 -0 -0 -0 -0 -0 -0 -0
-0 -1 -0 -0 -13 -21 -0 -0 -0 -0 -0 -0 -0 -0 -0 -0 -0 -0 -0 -0 -0 -0 -0 -0 -0 -0 -0 -0 -0 -0 -0 -0 -0 -0 -0 -0 -0 -0 -0 -0 -0 -0 -0 -0 -0 -0 -0 -0 -0
-0 -0 -0 -0 -0 -55 -0 -0 -0 -0 -0 -0 -0 -0 -0 -0 -0 -0 -0 -0 -0 -0 -0 -0 -0 -0 -0 -0 -0 -0 -0 -0 -0 -0 -0 -0 -0 -0 -0 -0 -0 -0 -0 -0 -0 -0 -0 -0 -0
Wind_Speed
25 25 22 18 17 19 20 20 22 25 18 19 18 17 12 14 19 19 9 9 11 11 11 12 11 10 10 11 13 14 16 18 20 21 22 22 23 23 23 23 23 23 22 22 21 23 24 25 25
24 21 16 11 11 18 21 24 30 19 15 16 19 18 16 15 13 8 8 8 9 10 9 10 10 8 9 10 12 13 16 19 21 22 22 23 23 24 24 24 25 24 24 24 24 25 24 25 26
24 15 13 13 9 16 18 18 17 17 17 18 18 18 17 14 10 10 6 8 9 8 9 9 9 7 8 10 11 14 16 19 21 22 22 23 24 24 24 25 25 25 25 25 25 26 27 27 27
19 15 15 15 15 24 30 34 28 20 19 19 18 18 16 20 7 7 8 7 7 7 8 8 6 6 7 8 10 12 17 20 22 22 23 23 24 24 25 25 25 26 25 27 27 28 28 28 28
16 14 13 14 19 22 33 31 29 23 20 21 16 18 16 15 7 7 6 6 6 6 6 6 4 5 6 6 8 12 17 20 22 22 23 23 23 24 25 26 26 26 26 27 29 29 30 31 30
15 14 14 11 18 22 32 30 27 21 22 21 18 16 17 6 4 3 4 5 5 6 4 4 3 4 4 5 7 10 10 19 22 22 23 23 24 24 25 26 26 26 27 29 30 30 29 30 33
15 16 16 15 25 31 28 30 27 24 22 24 20 19 16 7 2 3 3 3 4 4 3 3 6 5 4 5 6 7 8 19 21 22 22 23 24 25 25 26 26 27 28 29 30 29 28 28 32
16 16 18 19 19 32 28 26 25 25 24 21 18 21 19 9 1 5 2 2 2 2 1 3 6 7 6 6 6 7 8 18 20 21 22 23 23 25 26 26 26 26 27 29 34 33 34 32 33
18 18 17 20 20 27 28 27 25 20 22 23 20 17 14 3 3 7 5 4 3 3 2 5 6 7 7 7 9 7 7 17 20 20 21 20 21 23 25 25 25 26 28 31 33 33 34 33 35
16 20 19 22 23 28 29 26 28 27 26 25 20 14 8 7 6 10 11 9 6 6 5 9 8 7 7 10 10 7 7 16 18 19 20 21 22 22 23 24 25 27 30 31 32 33 34 34 35
20 24 26 31 33 32 33 34 26 30 30 24 24 17 13 11 11 16 19 15 10 6 9 15 12 8 8 9 10 8 7 18 17 17 19 20 20 21 22 24 27 28 31 31 31 32 33 35 35
31 29 28 32 35 38 37 30 34 32 33 29 25 17 16 17 14 16 20 17 11 9 12 16 17 11 10 8 8 7 6 9 13 16 18 19 21 22 23 24 27 28 29 30 30 32 31 33 34
37 37 37 41 40 38 39 38 33 38 36 34 29 22 21 20 18 19 22 20 15 14 16 18 18 13 11 9 7 5 5 7 11 14 16 18 19 21 22 24 26 27 29 30 30 32 32 32 33
35 41 42 39 41 38 42 47 36 34 32 36 38 32 26 24 22 20 21 21 17 16 18 20 19 17 12 10 9 5 4 5 8 11 14 16 18 20 21 23 25 26 28 29 30 32 32 32 34
38 44 44 44 39 38 36 52 42 34 34 39 39 35 28 31 25 24 20 19 20 19 21 23 20 18 14 11 9 6 5 3 6 9 11 14 16 18 20 22 23 25 27 28 30 31 32 32 33
41 43 46 32 31 35 33 62 38 30 32 38 38 44 36 36 30 28 26 20 20 20 21 23 21 20 16 13 10 8 4 3 4 7 9 12 15 17 18 20 22 23 25 27 29 29 30 31 32
36 48 48 50 38 40 35 53 46 39 38 43 41 41 43 39 38 30 28 24 20 20 22 24 21 20 18 14 11 8 4 3 2 4 7 10 12 15 17 18 20 22 24 26 28 29 29 30 31
45 46 49 50 35 37 50 53 50 38 32 37 41 44 42 44 44 35 30 26 23 20 22 22 23 21 18 15 13 10 7 4 2 2 5 8 10 13 15 17 19 21 23 25 27 29 29 29 30
50 55 62 57 51 53 55 53 51 46 46 46 45 43 44 44 42 38 33 28 25 24 23 21 22 21 19 17 14 13 9 6 3 1 4 6 8 11 13 15 17 18 20 23 24 26 27 27 27
49 56 60 57 46 48 58 62 56 50 46 41 45 45 44 39 40 39 37 32 28 25 25 23 22 21 20 19 17 16 11 8 4 2 3 4 7 9 11 14 15 16 18 19 20 21 21 21 22
53 55 58 60 56 56 59 70 59 53 47 42 42 44 47 47 44 41 38 36 31 29 27 25 23 22 22 20 18 15 13 9 7 5 3 5 7 8 9 12 13 14 15 17 18 19 19 19 19
65 49 55 56 54 62 39 71 61 54 57 52 48 46 44 46 45 43 41 37 35 31 28 27 26 25 23 21 19 18 16 13 11 7 5 6 6 6 8 10 12 12 13 15 15 16 17 17 17
60 52 55 56 60 59 61 61 76 52 64 67 51 49 48 46 46 45 43 38 36 32 30 28 27 26 25 23 22 20 19 16 11 8 8 6 4 5 6 7 11 11 11 13 14 15 16 15 15
47 54 55 57 56 66 68 56 72 62 68 56 54 51 49 46 44 46 43 40 39 36 33 31 29 28 27 25 24 22 20 17 13 11 10 8 6 5 6 6 9 9 9 12 13 14 15 14 15
43 49 55 53 56 68 56 56 72 48 48 56 56 54 50 50 47 42 42 42 40 39 35 33 30 30 28 26 25 24 22 20 17 14 12 11 9 7 7 6 8 8 8 11 12 14 15 15 17
49 40 47 55 57 68 52 62 71 52 57 58 51 52 49 48 42 40 39 40 42 40 37 35 33 30 29 27 25 25 25 22 19 16 14 12 11 9 8 7 8 8 8 10 12 13 14 14 14
31 36 35 48 60 59 50 53 63 63 66 57 55 53 48 45 43 41 40 38 39 40 39 37 34 32 30 28 26 25 24 23 21 18 16 14 12 10 9 9 8 7 8 10 11 12 14 13 14
23 32 31 31 47 54 46 52 53 41 54 57 60 55 54 46 45 39 40 36 36 38 37 37 35 33 31 29 27 26 25 24 23 20 18 16 13 12 11 9 9 9 9 9 10 11 12 12 14
37 33 31 34 37 46 56 53 35 38 38 35 36 37 37 41 40 41 35 34 34 35 36 37 36 34 33 30 28 26 25 24 23 22 20 18 15 14 12 11 10 10 10 9 9 10 12 13 13
27 31 30 35 36 39 45 59 20 21 15 16 22 30 33 37 37 37 36 29 30 33 35 36 35 35 33 31 29 27 26 24 24 23 21 18 17 15 14 12 11 10 10 9 10 10 12 13 13
Wind_Direction
292 290 300 305 301 293 294 299 290 292 317 310 302 303 322 309 289 271 351 53 66 68 71 68 58 43 27 26 32 30 36 44 49 54 58 64 61 57 56 54 52 48 44 43 40 31 24 16 10
300 307 318 340 320 294 289 292 274 305 322 322 299 295 302 309 336 9 349 53 63 69 63 59 55 30 20 30 36 35 40 49 56 58 58 57 54 54 54 50 45 46 46 43 39 31 26 18 11
299 337 338 324 316 287 287 300 322 318 317 306 302 299 292 309 341 320 51 71 62 64 68 60 49 20 28 30 36 40 42 56 61 66 62 58 56 56 52 46 50 51 48 42 37 31 26 21 17
325 335 328 314 300 281 269 276 289 305 310 308 300 293 298 289 357 7 80 67 54 59 68 60 21 25 24 28 30 32 49 66 79 80 70 62 58 57 55 53 55 50 50 43 39 34 30 26 22
332 334 326 318 298 290 270 280 284 295 301 299 302 288 295 307 14 71 69 65 66 59 62 49 11 12 18 11 16 31 58 63 89 86 70 66 67 62 56 52 50 52 50 46 40 36 36 33 28
334 335 323 311 303 296 270 288 288 288 292 297 293 291 291 338 17 40 62 57 65 75 54 36 334 341 358 0 8 28 16 65 92 88 80 80 74 69 61 57 57 55 52 46 43 41 41 38 33
328 322 314 311 297 282 283 287 289 290 293 287 292 287 288 308 5 14 50 44 59 67 47 311 280 299 323 337 349 323 347 75 89 89 86 77 68 62 60 59 61 58 54 49 44 43 43 43 38
319 320 311 306 303 284 286 292 291 291 288 300 299 282 280 287 240 309 321 351 36 62 44 281 272 277 289 301 301 305 342 72 88 90 88 78 68 60 60 64 64 61 56 50 44 44 47 47 45
312 306 303 302 299 289 293 297 290 298 291 293 294 293 290 267 258 275 266 287 299 292 285 264 265 271 275 283 270 308 338 77 89 89 86 88 82 69 64 63 63 60 57 51 49 49 51 52 52
299 297 298 297 297 291 293 298 291 286 287 285 291 294 285 262 253 255 258 264 269 265 259 256 261 259 271 264 264 302 0 85 94 86 83 76 71 75 66 61 63 60 54 53 53 54 57 57 61
298 290 292 287 286 290 289 287 294 281 277 281 285 281 273 265 261 256 260 262 261 256 258 251 254 252 262 267 265 284 332 116 88 78 76 75 76 74 70 63 58 60 53 56 59 60 64 62 67
288 288 290 288 286 282 283 292 284 279 276 282 287 280 273 265 259 255 257 259 253 250 254 248 249 247 255 268 270 293 352 44 69 73 77 75 71 67 62 61 58 58 57 58 62 62 69 69 72
287 287 285 281 282 283 284 281 285 277 277 278 282 279 268 266 262 259 258 258 256 253 251 247 246 244 251 262 269 294 334 29 65 71 71 75 73 67 64 60 56 59 59 61 62 63 70 75 76
293 289 284 285 281 284 279 274 280 281 283 276 271 271 266 261 259 256 253 253 252 252 249 245 245 246 248 255 262 279 320 15 53 64 66 69 74 70 65 62 58 62 62 63 64 66 71 76 76
293 288 286 280 282 280 287 271 273 279 279 275 270 268 264 259 257 253 249 246 248 252 247 243 245 245 246 250 255 265 289 28 46 61 63 63 72 69 66 66 64 66 65 64 67 70 74 76 78
290 288 283 290 289 285 278 258 279 283 278 273 271 260 263 257 255 254 250 244 244 248 246 242 244 245 244 247 250 258 271 319 29 54 60 61 71 68 67 69 69 72 68 68 69 73 74 77 73
289 282 281 282 283 283 275 274 276 276 275 271 269 266 259 258 253 252 248 244 239 242 245 241 238 243 240 243 248 252 252 280 23 45 57 62 68 72 70 74 74 75 72 71 73 74 76 75 75
284 282 281 279 289 284 276 273 273 277 274 274 269 264 261 255 251 251 247 244 240 239 242 238 236 240 237 239 244 249 256 261 280 62 72 73 73 70 76 80 79 80 76 78 76 75 74 76 75
286 281 276 277 280 281 275 276 272 271 267 268 267 265 260 257 254 250 245 242 239 238 238 231 231 235 232 233 235 241 240 236 237 126 95 85 83 76 79 88 87 85 86 84 85 84 79 79 81
288 282 279 280 286 280 273 271 271 269 266 265 265 262 260 261 255 251 245 240 236 232 231 229 229 230 231 233 236 246 239 248 231 185 127 100 97 87 86 96 94 91 94 94 93 91 88 87 95
286 283 281 279 283 280 275 268 267 266 266 265 262 262 259 256 255 252 248 241 237 233 227 226 225 228 232 233 235 240 245 250 250 230 187 132 115 100 93 100 97 94 95 99 94 95 92 88 89
283 288 284 281 279 269 280 266 263 262 260 260 259 259 260 256 255 254 249 242 236 233 230 229 227 228 229 227 226 221 224 224 244 214 188 152 131 114 105 102 103 93 97 102 99 100 98 87 94
285 288 282 277 273 273 266 266 258 262 255 251 259 260 260 258 255 253 249 243 238 234 231 230 225 225 227 227 226 224 231 237 237 223 192 180 164 139 117 108 108 98 90 98 95 99 96 93 93
291 287 282 275 269 264 260 258 259 254 252 260 259 259 258 259 257 252 250 245 240 237 233 229 225 224 225 224 225 223 227 228 225 216 204 197 190 167 143 123 116 102 88 97 96 96 97 92 94
303 289 277 269 259 258 260 256 253 260 263 258 259 259 259 257 255 254 248 243 239 236 232 229 225 225 223 223 224 225 227 223 217 208 203 198 196 188 166 150 130 116 98 100 93 91 89 83 97
295 284 274 270 264 262 264 256 253 259 260 262 261 259 260 255 254 252 247 244 239 235 230 228 225 225 221 221 222 227 230 229 228 216 212 213 204 194 180 161 140 128 109 103 96 91 87 85 88
297 289 283 270 264 266 264 262 260 258 256 259 259 259 258 255 253 252 249 244 238 234 231 227 227 226 221 219 225 226 227 226 225 221 222 221 216 207 184 168 154 141 123 111 103 97 91 81 86
290 294 289 273 265 260 262 260 257 261 255 253 254 259 250 255 253 254 248 243 239 235 231 228 227 225 222 220 224 225 227 227 227 225 220 219 219 207 192 186 163 151 135 121 112 104 95 87 87
298 290 284 283 272 264 257 258 264 263 261 265 260 259 257 255 259 250 250 245 240 235 232 228 227 227 225 221 223 223 226 223 223 224 224 220 216 207 200 187 171 160 149 135 122 115 107 98 94
291 301 289 275 282 270 259 246 268 271 277 293 283 267 266 261 259 254 247 248 240 233 230 228 227 226 226 222 223 223 225 221 220 223 222 220 216 211 200 186 180 169 158 148 136 126 119 111 105